Location: Newark
(8.3333°N, 39.1667°E)
Time: 12:59:49
(UTC+00:00)

Falcon 9 debris - Pass Details

Date: 25 August 2019
Orbit: 432 x 437 km, 53.0° (Epoch: 22 September)

Event Time Altitude Azimuth Distance (km) Brightness Sun altitude
Rises 16:28:49 0° 330° (NNW) 2,393 7.6 -13.8°
Reaches altitude 10° 16:30:56 10° 333° (NNW) 1,526 6.4 -14.3°
Maximum altitude 16:34:19 62° 55° (NE) 485 3.1 -15.1°
Enters shadow 16:35:43 32° 125° (SE) 766 3.8 -15.5°
